Time,TemperatureF,DewpointF,PressureIn,WindDirection,WindDirectionDegrees,WindSpeedMPH,WindSpeedGustMPH,Humidity,HourlyPrecipIn,Conditions,Clouds,dailyrainin,SoftwareType,DateUTC
2013-06-15 00:01:00,54.0,50.0,30.03,NNW,347,3.0,7.0,86,0.00,,,0.00,,2013-06-15 07:01:00,
2013-06-15 00:11:00,53.0,49.0,30.02,NNE,27,3.0,6.0,86,0.00,,,0.00,,2013-06-15 07:11:00,
2013-06-15 00:22:00,53.0,49.0,30.02,North,349,3.0,7.0,87,0.00,,,0.00,,2013-06-15 07:22:00,
2013-06-15 00:32:00,53.0,50.0,30.02,NNW,333,3.0,7.0,88,0.00,,,0.00,,2013-06-15 07:32:00,
2013-06-15 00:43:00,53.0,50.0,30.02,North,357,3.0,5.0,88,0.00,,,0.00,,2013-06-15 07:43:00,
2013-06-15 00:53:00,53.0,50.0,30.02,NNW,342,3.0,8.0,88,0.00,,,0.00,,2013-06-15 07:53:00,
2013-06-15 01:02:00,52.0,49.0,30.01,NNW,347,3.0,6.0,88,0.00,,,0.00,,2013-06-15 08:02:00,
2013-06-15 01:11:00,52.0,49.0,30.01,North,3,2.0,11.0,88,0.00,,,0.00,,2013-06-15 08:11:00,
2013-06-15 01:21:00,52.0,49.0,30.01,North,1,3.0,6.0,88,0.00,,,0.00,,2013-06-15 08:21:00,
2013-06-15 01:33:00,52.0,49.0,30.00,NNW,347,4.0,8.0,89,0.00,,,0.00,,2013-06-15 08:33:00,
2013-06-15 01:42:00,52.0,49.0,30.00,North,350,3.0,7.0,89,0.00,,,0.00,,2013-06-15 08:42:00,
2013-06-15 01:53:00,52.0,49.0,29.99,NNE,19,2.0,9.0,89,0.00,,,0.00,,2013-06-15 08:53:00,
2013-06-15 02:02:00,52.0,49.0,29.99,NNE,25,4.0,7.0,89,0.00,,,0.00,,2013-06-15 09:02:00,
2013-06-15 02:11:00,52.0,49.0,29.99,NNE,21,3.0,8.0,89,0.00,,,0.00,,2013-06-15 09:11:00,
2013-06-15 02:21:00,52.0,49.0,29.98,NNW,346,2.0,7.0,89,0.00,,,0.00,,2013-06-15 09:21:00,
2013-06-15 02:32:00,52.0,49.0,29.98,North,360,3.0,7.0,89,0.00,,,0.00,,2013-06-15 09:32:00,
2013-06-15 02:43:00,52.0,49.0,29.98,North,2,1.0,9.0,90,0.00,,,0.00,,2013-06-15 09:43:00,
2013-06-15 02:52:00,52.0,49.0,29.98,North,357,5.0,11.0,90,0.00,,,0.00,,2013-06-15 09:52:00,
2013-06-15 03:01:00,52.0,49.0,29.97,NNW,333,3.0,6.0,91,0.00,,,0.00,,2013-06-15 10:01:00,
2013-06-15 03:11:00,52.0,49.0,29.97,NNW,333,3.0,6.0,91,0.00,,,0.00,,2013-06-15 10:11:00,
2013-06-15 03:23:00,52.0,49.0,29.97,NNW,340,2.0,6.0,91,0.00,,,0.00,,2013-06-15 10:23:00,
2013-06-15 03:33:00,52.0,49.0,29.97,NNW,330,2.0,7.0,91,0.00,,,0.00,,2013-06-15 10:33:00,
2013-06-15 03:43:00,52.0,50.0,29.96,NNW,340,4.0,6.0,92,0.00,,,0.00,,2013-06-15 10:43:00,
2013-06-15 03:53:00,52.0,50.0,29.96,North,6,2.0,5.0,92,0.00,,,0.00,,2013-06-15 10:53:00,
2013-06-15 04:01:00,52.0,50.0,29.96,NNW,333,2.0,10.0,92,0.00,,,0.00,,2013-06-15 11:01:00,
2013-06-15 04:11:00,52.0,50.0,29.96,North,356,3.0,6.0,92,0.00,,,0.00,,2013-06-15 11:11:00,
2013-06-15 04:22:00,52.0,50.0,29.96,NNW,347,2.0,6.0,92,0.00,,,0.00,,2013-06-15 11:22:00,
2013-06-15 04:32:00,51.0,49.0,29.96,North,359,3.0,5.0,92,0.00,,,0.00,,2013-06-15 11:32:00,
2013-06-15 04:43:00,51.0,49.0,29.96,North,359,3.0,5.0,92,0.00,,,0.00,,2013-06-15 11:43:00,
2013-06-15 04:53:00,51.0,49.0,29.95,North,359,3.0,9.0,92,0.00,,,0.00,,2013-06-15 11:53:00,
2013-06-15 05:01:00,52.0,50.0,29.95,North,357,2.0,6.0,93,0.00,,,0.00,,2013-06-15 12:01:00,
2013-06-15 05:11:00,51.0,49.0,29.95,NNW,336,3.0,7.0,93,0.00,,,0.00,,2013-06-15 12:11:00,
2013-06-15 05:22:00,51.0,49.0,29.95,NNE,15,2.0,9.0,93,0.00,,,0.00,,2013-06-15 12:22:00,
2013-06-15 05:33:00,51.0,49.0,29.95,NNE,15,2.0,9.0,93,0.00,,,0.00,,2013-06-15 12:33:00,
2013-06-15 05:43:00,51.0,49.0,29.94,North,355,3.0,10.0,93,0.00,,,0.00,,2013-06-15 12:43:00,
2013-06-15 05:52:00,51.0,49.0,29.94,North,357,4.0,9.0,93,0.00,,,0.00,,2013-06-15 12:52:00,
2013-06-15 06:02:00,51.0,49.0,29.94,NNW,333,4.0,12.0,93,0.00,,,0.00,,2013-06-15 13:02:00,
2013-06-15 06:11:00,51.0,49.0,29.94,NNW,332,4.0,10.0,93,0.00,,,0.00,,2013-06-15 13:11:00,
2013-06-15 06:22:00,52.0,50.0,29.94,North,352,6.0,14.0,92,0.00,,,0.00,,2013-06-15 13:22:00,
2013-06-15 06:32:00,52.0,50.0,29.94,North,354,3.0,10.0,92,0.00,,,0.00,,2013-06-15 13:32:00,
2013-06-15 06:43:00,53.0,50.0,29.94,NNW,342,2.0,10.0,91,0.00,,,0.00,,2013-06-15 13:43:00,
2013-06-15 06:53:00,53.0,50.0,29.94,North,352,2.0,9.0,91,0.00,,,0.00,,2013-06-15 13:53:00,
2013-06-15 07:01:00,53.0,50.0,29.94,North,357,1.0,11.0,90,0.00,,,0.00,,2013-06-15 14:01:00,
2013-06-15 07:11:00,54.0,51.0,29.94,North,2,3.0,9.0,88,0.00,,,0.00,,2013-06-15 14:11:00,
2013-06-15 07:22:00,54.0,50.0,29.94,NNE,24,2.0,8.0,87,0.00,,,0.00,,2013-06-15 14:22:00,
2013-06-15 07:33:00,54.0,50.0,29.93,North,356,4.0,12.0,86,0.00,,,0.00,,2013-06-15 14:33:00,
2013-06-15 07:43:00,55.0,51.0,29.94,NNE,12,3.0,9.0,86,0.00,,,0.00,,2013-06-15 14:43:00,
2013-06-15 07:53:00,55.0,51.0,29.94,North,360,2.0,10.0,86,0.00,,,0.00,,2013-06-15 14:53:00,
2013-06-15 08:01:00,55.0,50.0,29.93,NNE,27,3.0,9.0,84,0.00,,,0.00,,2013-06-15 15:01:00,
2013-06-15 08:11:00,56.0,51.0,29.93,North,360,5.0,9.0,82,0.00,,,0.00,,2013-06-15 15:11:00,
2013-06-15 08:22:00,56.0,51.0,29.93,North,351,2.0,6.0,82,0.00,,,0.00,,2013-06-15 15:22:00,
2013-06-15 08:33:00,56.0,51.0,29.93,North,355,3.0,9.0,82,0.00,,,0.00,,2013-06-15 15:33:00,
2013-06-15 08:42:00,57.0,52.0,29.93,North,351,1.0,6.0,82,0.00,,,0.00,,2013-06-15 15:42:00,
2013-06-15 08:52:00,57.0,51.0,29.93,NNE,26,3.0,7.0,81,0.00,,,0.00,,2013-06-15 15:52:00,
2013-06-15 09:01:00,57.0,51.0,29.94,NW,317,2.0,10.0,80,0.00,,,0.00,,2013-06-15 16:01:00,
2013-06-15 09:11:00,58.0,51.0,29.94,WNW,300,3.0,11.0,78,0.00,,,0.00,,2013-06-15 16:11:00,
2013-06-15 09:21:00,58.0,51.0,29.94,WNW,300,3.0,11.0,78,0.00,,,0.00,,2013-06-15 16:21:00,
2013-06-15 09:32:00,58.0,50.0,29.94,NNW,348,4.0,12.0,74,0.00,,,0.00,,2013-06-15 16:32:00,
2013-06-15 09:43:00,58.0,50.0,29.93,NNE,20,3.0,12.0,75,0.00,,,0.00,,2013-06-15 16:43:00,
2013-06-15 09:53:00,58.0,50.0,29.93,NNE,20,3.0,12.0,75,0.00,,,0.00,,2013-06-15 16:53:00,
2013-06-15 10:01:00,58.0,50.0,29.93,NNE,24,7.0,18.0,74,0.00,,,0.00,,2013-06-15 17:01:00,
2013-06-15 10:11:00,59.0,50.0,29.93,NNW,343,6.0,13.0,72,0.00,,,0.00,,2013-06-15 17:11:00,
2013-06-15 10:21:00,60.0,51.0,29.93,NNE,22,4.0,13.0,71,0.00,,,0.00,,2013-06-15 17:21:00,
2013-06-15 10:32:00,60.0,50.0,29.93,North,352,9.0,17.0,70,0.00,,,0.00,,2013-06-15 17:32:00,
2013-06-15 10:43:00,60.0,51.0,29.92,NNE,16,6.0,15.0,72,0.00,,,0.00,,2013-06-15 17:43:00,
2013-06-15 10:52:00,60.0,51.0,29.92,NNE,16,6.0,15.0,72,0.00,,,0.00,,2013-06-15 17:52:00,
2013-06-15 11:01:00,60.0,51.0,29.92,North,9,5.0,19.0,71,0.00,,,0.00,,2013-06-15 18:01:00,
2013-06-15 11:11:00,61.0,50.0,29.92,North,353,9.0,15.0,68,0.00,,,0.00,,2013-06-15 18:11:00,
2013-06-15 11:22:00,60.0,49.0,29.92,North,349,8.0,16.0,68,0.00,,,0.00,,2013-06-15 18:22:00,
2013-06-15 11:32:00,60.0,49.0,29.92,North,349,8.0,16.0,68,0.00,,,0.00,,2013-06-15 18:32:00,
2013-06-15 11:43:00,61.0,50.0,29.91,NNW,348,5.0,15.0,68,0.00,,,0.00,,2013-06-15 18:43:00,
2013-06-15 11:53:00,61.0,50.0,29.91,NNW,334,5.0,13.0,67,0.00,,,0.00,,2013-06-15 18:53:00,
2013-06-15 12:01:00,61.0,50.0,29.91,NNW,347,6.0,13.0,67,0.00,,,0.00,,2013-06-15 19:01:00,
2013-06-15 12:11:00,62.0,51.0,29.91,NNW,342,3.0,13.0,67,0.00,,,0.00,,2013-06-15 19:11:00,
2013-06-15 12:22:00,62.0,51.0,29.91,North,3,3.0,11.0,67,0.00,,,0.00,,2013-06-15 19:22:00,
2013-06-15 12:32:00,62.0,51.0,29.91,NNW,331,4.0,12.0,67,0.00,,,0.00,,2013-06-15 19:32:00,
2013-06-15 12:43:00,62.0,50.0,29.91,NW,324,3.0,12.0,65,0.00,,,0.00,,2013-06-15 19:43:00,
2013-06-15 12:52:00,63.0,51.0,29.91,North,9,5.0,13.0,64,0.00,,,0.00,,2013-06-15 19:52:00,
2013-06-15 13:01:00,63.0,51.0,29.91,NNE,15,5.0,15.0,64,0.00,,,0.00,,2013-06-15 20:01:00,
2013-06-15 13:11:00,63.0,51.0,29.91,NNE,15,5.0,15.0,64,0.00,,,0.00,,2013-06-15 20:11:00,
2013-06-15 13:22:00,64.0,51.0,29.91,NNW,338,5.0,12.0,63,0.00,,,0.00,,2013-06-15 20:22:00,
2013-06-15 13:33:00,64.0,51.0,29.91,NNE,14,2.0,14.0,63,0.00,,,0.00,,2013-06-15 20:33:00,
2013-06-15 13:43:00,64.0,51.0,29.91,NNE,14,2.0,14.0,63,0.00,,,0.00,,2013-06-15 20:43:00,
2013-06-15 13:52:00,65.0,51.0,29.91,NNW,329,3.0,15.0,61,0.00,,,0.00,,2013-06-15 20:52:00,
2013-06-15 14:01:00,66.0,51.0,29.91,North,4,3.0,12.0,59,0.00,,,0.00,,2013-06-15 21:01:00,
2013-06-15 14:11:00,66.0,51.0,29.91,North,4,3.0,12.0,59,0.00,,,0.00,,2013-06-15 21:11:00,
2013-06-15 14:22:00,66.0,51.0,29.91,NNW,345,5.0,10.0,59,0.00,,,0.00,,2013-06-15 21:22:00,
2013-06-15 14:33:00,66.0,51.0,29.91,North,8,4.0,10.0,59,0.00,,,0.00,,2013-06-15 21:33:00,
2013-06-15 14:42:00,66.0,51.0,29.90,NNE,15,5.0,11.0,59,0.00,,,0.00,,2013-06-15 21:42:00,
2013-06-15 14:52:00,66.0,51.0,29.90,NNE,23,3.0,11.0,59,0.00,,,0.00,,2013-06-15 21:52:00,
2013-06-15 15:01:00,66.0,51.0,29.89,NW,321,3.0,10.0,59,0.00,,,0.00,,2013-06-15 22:01:00,
2013-06-15 15:11:00,66.0,51.0,29.89,NNW,345,3.0,8.0,58,0.00,,,0.00,,2013-06-15 22:11:00,
2013-06-15 15:22:00,68.0,52.0,29.89,NNW,338,3.0,12.0,56,0.00,,,0.00,,2013-06-15 22:22:00,
2013-06-15 15:32:00,68.0,51.0,29.89,NNW,347,3.0,7.0,55,0.00,,,0.00,,2013-06-15 22:32:00,
2013-06-15 15:42:00,68.0,51.0,29.89,NNW,347,3.0,7.0,55,0.00,,,0.00,,2013-06-15 22:42:00,
2013-06-15 15:53:00,68.0,51.0,29.89,NW,318,4.0,10.0,55,0.00,,,0.00,,2013-06-15 22:53:00,
2013-06-15 16:01:00,68.0,51.0,29.89,North,357,4.0,9.0,54,0.00,,,0.00,,2013-06-15 23:01:00,
2013-06-15 16:11:00,68.0,48.0,29.89,NNE,24,6.0,11.0,49,0.00,,,0.00,,2013-06-15 23:11:00,
2013-06-15 16:22:00,67.0,48.0,29.89,NNE,23,4.0,12.0,50,0.00,,,0.00,,2013-06-15 23:22:00,
2013-06-15 16:33:00,67.0,48.0,29.89,NE,40,3.0,11.0,50,0.00,,,0.00,,2013-06-15 23:33:00,
2013-06-15 16:42:00,67.0,48.0,29.89,NE,34,3.0,11.0,51,0.00,,,0.00,,2013-06-15 23:42:00,
2013-06-15 16:52:00,68.0,50.0,29.89,NNE,13,2.0,4.0,52,0.00,,,0.00,,2013-06-15 23:52:00,
2013-06-15 17:01:00,68.0,50.0,29.89,NNE,13,2.0,4.0,52,0.00,,,0.00,,2013-06-16 00:01:00,
2013-06-15 17:11:00,68.0,50.0,29.89,NNE,13,2.0,4.0,52,0.00,,,0.00,,2013-06-16 00:11:00,
2013-06-15 17:22:00,68.0,50.0,29.89,NE,52,4.0,12.0,53,0.00,,,0.00,,2013-06-16 00:22:00,
2013-06-15 17:33:00,68.0,50.0,29.89,NE,52,4.0,12.0,53,0.00,,,0.00,,2013-06-16 00:33:00,
2013-06-15 17:43:00,68.0,50.0,29.89,NE,52,4.0,12.0,53,0.00,,,0.00,,2013-06-16 00:43:00,
2013-06-15 17:52:00,69.0,47.0,29.90,NNE,33,1.0,7.0,46,0.00,,,0.00,,2013-06-16 00:52:00,
2013-06-15 18:01:00,69.0,47.0,29.90,NNE,33,1.0,7.0,46,0.00,,,0.00,,2013-06-16 01:01:00,
2013-06-15 18:11:00,69.0,46.0,29.90,NNE,17,3.0,9.0,43,0.00,,,0.00,,2013-06-16 01:11:00,
2013-06-15 18:22:00,69.0,46.0,29.90,NNE,17,3.0,9.0,43,0.00,,,0.00,,2013-06-16 01:22:00,
2013-06-15 18:32:00,69.0,47.0,29.91,NNW,342,2.0,5.0,46,0.00,,,0.00,,2013-06-16 01:32:00,
2013-06-15 18:42:00,68.0,47.0,29.90,North,358,4.0,9.0,47,0.00,,,0.00,,2013-06-16 01:42:00,
2013-06-15 18:53:00,68.0,47.0,29.90,North,358,4.0,9.0,47,0.00,,,0.00,,2013-06-16 01:53:00,
2013-06-15 19:01:00,68.0,47.0,29.90,North,358,4.0,9.0,47,0.00,,,0.00,,2013-06-16 02:01:00,
2013-06-15 19:11:00,67.0,49.0,29.91,NNE,19,3.0,10.0,53,0.00,,,0.00,,2013-06-16 02:11:00,
2013-06-15 19:22:00,66.0,48.0,29.91,North,7,3.0,6.0,53,0.00,,,0.00,,2013-06-16 02:22:00,
2013-06-15 19:33:00,66.0,49.0,29.91,North,352,3.0,6.0,54,0.00,,,0.00,,2013-06-16 02:33:00,
2013-06-15 19:42:00,66.0,48.0,29.91,North,350,2.0,5.0,52,0.00,,,0.00,,2013-06-16 02:42:00,
2013-06-15 19:53:00,66.0,48.0,29.91,North,350,2.0,5.0,52,0.00,,,0.00,,2013-06-16 02:53:00,
2013-06-15 20:01:00,66.0,48.0,29.91,NNW,346,3.0,7.0,52,0.00,,,0.00,,2013-06-16 03:01:00,
2013-06-15 20:11:00,65.0,48.0,29.91,NNW,338,3.0,7.0,55,0.00,,,0.00,,2013-06-16 03:11:00,
2013-06-15 20:22:00,65.0,48.0,29.91,NNW,338,3.0,7.0,55,0.00,,,0.00,,2013-06-16 03:22:00,
2013-06-15 20:33:00,65.0,48.0,29.91,NNW,345,2.0,7.0,55,0.00,,,0.00,,2013-06-16 03:33:00,
2013-06-15 20:43:00,65.0,49.0,29.91,North,354,2.0,6.0,56,0.00,,,0.00,,2013-06-16 03:43:00,
2013-06-15 20:53:00,65.0,47.0,29.91,NNE,20,1.0,6.0,53,0.00,,,0.00,,2013-06-16 03:53:00,
2013-06-15 21:01:00,64.0,48.0,29.91,North,350,1.0,6.0,56,0.00,,,0.00,,2013-06-16 04:01:00,
2013-06-15 21:12:00,64.0,48.0,29.91,NNW,337,3.0,7.0,56,0.00,,,0.00,,2013-06-16 04:12:00,
2013-06-15 21:23:00,64.0,48.0,29.91,NNW,337,3.0,7.0,56,0.00,,,0.00,,2013-06-16 04:23:00,
2013-06-15 21:33:00,63.0,49.0,29.92,NW,325,1.0,5.0,61,0.00,,,0.00,,2013-06-16 04:33:00,
2013-06-15 21:42:00,63.0,50.0,29.92,North,8,1.0,5.0,62,0.00,,,0.00,,2013-06-16 04:42:00,
2013-06-15 21:53:00,63.0,50.0,29.92,NNE,21,1.0,4.0,63,0.00,,,0.00,,2013-06-16 04:53:00,
2013-06-15 22:01:00,63.0,51.0,29.92,NNE,17,1.0,4.0,64,0.00,,,0.00,,2013-06-16 05:01:00,
2013-06-15 22:11:00,63.0,51.0,29.92,North,9,1.0,5.0,65,0.00,,,0.00,,2013-06-16 05:11:00,
2013-06-15 22:22:00,62.0,51.0,29.93,NNW,346,2.0,5.0,66,0.00,,,0.00,,2013-06-16 05:22:00,
2013-06-15 22:33:00,62.0,51.0,29.93,NNE,13,1.0,7.0,66,0.00,,,0.00,,2013-06-16 05:33:00,
2013-06-15 22:43:00,62.0,50.0,29.93,NNE,12,1.0,4.0,64,0.00,,,0.00,,2013-06-16 05:43:00,
2013-06-15 22:52:00,62.0,50.0,29.93,North,9,1.0,4.0,65,0.00,,,0.00,,2013-06-16 05:52:00,
2013-06-15 23:01:00,62.0,50.0,29.93,NNE,17,1.0,4.0,65,0.00,,,0.00,,2013-06-16 06:01:00,
2013-06-15 23:11:00,62.0,50.0,29.93,NW,311,1.0,5.0,65,0.00,,,0.00,,2013-06-16 06:11:00,
2013-06-15 23:22:00,62.0,51.0,29.94,North,0,0.0,2.0,66,0.00,,,0.00,,2013-06-16 06:22:00,
2013-06-15 23:32:00,61.0,50.0,29.94,North,0,0.0,4.0,68,0.00,,,0.00,,2013-06-16 06:32:00,
2013-06-15 23:43:00,61.0,50.0,29.94,North,0,0.0,3.0,68,0.00,,,0.00,,2013-06-16 06:43:00,
2013-06-15 23:52:00,61.0,51.0,29.95,North,0,0.0,3.0,69,0.00,,,0.00,,2013-06-16 06:52:00,